STARLINK-1625 (46131 NORAD) Tracking and Keplerian Element Data

This shows tracking and keplerian element data for the satellite.

Feedback or suggestion? Click here.




ElementValue
Catalog46131
NameSTARLINK-1625
Epoch Orbit185
Epoch Day336.91667824
Epoch Year2020
RAAN292.7583
Inclination53.0016
Eccentricity0.000164
Argument of Perigee60.9202
Mean Anonmoly161.9326
Mean Motion15.05595188
Decay Rate3.287E-05
L11 46131U 20057Q 20336.91667824 .00003287 00000-0 24457-3 0 9991
L22 46131 53.0016 292.7583 0001640 60.9202 161.9326 15.05595188 1857

Live tracking and technical data element details for STARLINK-1625 (NORAD 46131). STARLINK-1625 can be tracked NOW for your location showing map with azimuth and elevation plus other details from your city location.

Track the satellite on the map from your city or location and see movement details for azimuth, elevation, latitude, longitude, range, height, and movement on the map or in text.







IsCatalogInMostPopularTable: catalog: 46131, numindb: 18
Update: records affected: 1



GetName: 46131 STARLINK-1625

Hit Count: updated at: Thu, 03 Dec 2020 07:43:40 GMT